Terug naar catalogus

STARLINK-30764

ActiefCommunicatieVLEO
NORAD 58170·PAYLOAD·🇺🇸 United States

Gelanceerd Oct 29, 2023 vanaf Vandenberg Space Force Base

Loading…

Volgende Passages (komende 24 uur)

TLE

VersSource: CelesTrak SupGP

Epoch: Sep 15, 2026, 02:17 UTC

1 58170C 23166W   26258.09562500 -.00028801  00000+0 -85114-3 0  2589
2 58170  53.1604  58.8458 0001016  85.0951 227.1981 15.34398066    12

Volg STARLINK-30764 in realtime met AllMySat

Download on the App Store